| time (UTC) | temp C | wind direction | speed KPH | gust KPH | rain 1hr cm | rain 24hr cm | rain mn cm | humidity % | barometer mb |
| 20260506201556 | 17 | 267 | 0.0 | 0.0 | 0.00 | 0.41 | 0.41 | 87 | 1007.0 |
| 20260506200137 | 17 | 250 | 0.0 | 0.0 | 0.00 | 0.41 | 0.41 | 88 | 1006.9 |
| 20260506194603 | 16 | 221 | 0.0 | 0.0 | 0.00 | 0.41 | 0.41 | 89 | 1007.0 |
| 20260506193054 | 16 | 228 | 0.0 | 0.0 | 0.00 | 0.41 | 0.41 | 91 | 1007.1 |
| 20260506191552 | 16 | 224 | 0.0 | 0.0 | 0.00 | 0.41 | 0.41 | 94 | 1007.2 |
| 20260506190050 | 15 | 245 | 0.0 | 0.0 | 0.00 | 0.41 | 0.41 | 95 | 1007.3 |
| 20260506184552 | 15 | 219 | 0.0 | 0.0 | 0.00 | 0.41 | 0.41 | 95 | 1007.5 |
| 20260506183047 | 15 | 243 | 0.0 | 0.0 | 0.00 | 0.41 | 0.41 | 95 | 1007.7 |
| 20260506181546 | 15 | 217 | 0.0 | 0.0 | 0.00 | 0.41 | 0.41 | 95 | 1007.8 |
| 20260506180051 | 14 | 233 | 0.0 | 0.0 | 0.03 | 0.41 | 0.41 | 95 | 1007.9 |
| 20260506174546 | 14 | 240 | 0.0 | 0.0 | 0.03 | 0.41 | 0.41 | 95 | 1008.0 |
| 20260506173048 | 14 | 148 | 0.0 | 0.0 | 0.03 | 0.41 | 0.41 | 95 | 1007.9 |
| 20260506171551 | 15 | 240 | 0.0 | 0.0 | 0.03 | 0.41 | 0.41 | 95 | 1007.8 |
| 20260506170043 | 14 | 250 | 0.0 | 0.0 | 0.00 | 0.38 | 0.38 | 95 | 1008.2 |
| 20260506164543 | 15 | 248 | 0.0 | 0.0 | 0.03 | 0.38 | 0.38 | 95 | 1008.2 |
| 20260506163047 | 15 | 217 | 0.0 | 0.0 | 0.08 | 0.38 | 0.38 | 95 | 1008.3 |
| 20260506161552 | 15 | 238 | 0.0 | 0.0 | 0.13 | 0.38 | 0.38 | 95 | 1007.8 |
| 20260506160040 | 15 | 170 | 0.0 | 0.0 | 0.20 | 0.38 | 0.38 | 95 | 1007.6 |
| 20260506154537 | 15 | 207 | 0.0 | 0.0 | 0.20 | 0.36 | 0.36 | 95 | 1008.5 |
| 20260506153038 | 15 | 214 | 0.0 | 0.0 | 0.18 | 0.30 | 0.30 | 95 | 1009.0 |
| 20260506151535 | 15 | 238 | 0.0 | 0.0 | 0.18 | 0.25 | 0.25 | 95 | 1009.1 |
| 20260506150035 | 15 | 249 | 0.0 | 0.0 | 0.13 | 0.18 | 0.18 | 95 | 1009.1 |
| 20260506144532 | 15 | 167 | 0.0 | 0.0 | 0.10 | 0.15 | 0.15 | 95 | 1008.9 |
| 20260506143032 | 15 | 245 | 0.0 | 0.0 | 0.10 | 0.13 | 0.13 | 95 | 1008.7 |
| 20260506141530 | 15 | 229 | 0.0 | 0.0 | 0.05 | 0.08 | 0.08 | 94 | 1008.8 |
| 20260506140029 | 15 | 195 | 0.0 | 0.0 | 0.05 | 0.05 | 0.05 | 94 | 1008.8 |
| 20260506134603 | 15 | 243 | 0.0 | 0.0 | 0.05 | 0.05 | 0.05 | 94 | 1008.7 |
| 20260506133028 | 15 | 200 | 0.0 | 0.0 | 0.03 | 0.03 | 0.03 | 94 | 1009.0 |
| 20260506131528 | 15 | 165 | 0.0 | 0.0 | 0.03 | 0.03 | 0.03 | 94 | 1009.1 |
| 20260506130026 | 15 | 203 | 0.0 | 0.0 | 0.00 | 0.00 | 0.00 | 93 | 1009.1 |
| 20260506124523 | 15 | 248 | 0.0 | 0.0 | 0.00 | 0.00 | 0.00 | 92 | 1009.2 |
| 20260506123020 | 17 | 272 | 0.0 | 0.0 | 0.00 | 0.00 | 0.00 | 80 | 1009.2 |
| 20260506121518 | 17 | 258 | 0.0 | 0.0 | 0.00 | 0.00 | 0.00 | 78 | 1008.9 |
| 20260506120016 | 17 | 233 | 0.0 | 0.0 | 0.00 | 0.00 | 0.00 | 76 | 1009.0 |
| 20260506114523 | 17 | 218 | 0.0 | 0.0 | 0.00 | 0.00 | 0.00 | 75 | 1008.9 |
| 20260506113013 | 17 | 276 | 0.0 | 0.0 | 0.00 | 0.00 | 0.00 | 75 | 1008.6 |
| 20260506111511 | 18 | 237 | 0.0 | 0.0 | 0.00 | 0.00 | 0.00 | 74 | 1008.6 |
| 20260506110015 | 18 | 214 | 0.0 | 0.0 | 0.00 | 0.00 | 0.00 | 73 | 1008.5 |
| 20260506104507 | -17 | 0.0 | 0.0 | 0.00 | 0.00 | 0.00 | 1008.1 | ||
| 20260506103012 | -17 | 0.0 | 0.0 | 0.00 | 0.00 | 0.00 | 1008.0 | ||
| 20260506101558 | -17 | 0.0 | 0.0 | 0.00 | 0.00 | 0.00 | 1007.9 | ||
| 20260506100054 | -17 | 0.0 | 0.0 | 0.00 | 0.00 | 0.00 | 1008.1 | ||
| 20260506094550 | -17 | 0.0 | 0.0 | 0.00 | 0.00 | 0.00 | 1008.2 | ||
| 20260506093052 | -17 | 0.0 | 0.0 | 0.00 | 0.00 | 0.00 | 1008.1 | ||
| 20260506091541 | -17 | 0.0 | 0.0 | 0.00 | 0.00 | 0.00 | 1008.1 | ||
| 20260506090036 | -17 | 0.0 | 0.0 | 0.00 | 0.00 | 0.00 | 1008.1 | ||
| 20260506084532 | -17 | 0.0 | 0.0 | 0.00 | 0.00 | 0.00 | 1008.2 | ||
| 20260506083028 | -17 | 0.0 | 0.0 | 0.00 | 0.00 | 0.00 | 1008.2 | ||
| 20260506081528 | -17 | 0.0 | 0.0 | 0.00 | 0.00 | 0.00 | 1008.3 | ||
| 20260506073013 | 18 | 166 | 0.0 | 0.0 | 0.00 | 0.00 | 0.00 | 62 | 1008.4 |
| 20260506071510 | 19 | 170 | 0.0 | 0.0 | 0.00 | 0.00 | 0.00 | 61 | 1008.4 |
| 20260506061600 | 20 | 163 | 0.0 | 0.0 | 0.00 | 0.00 | 0.00 | 57 | 1009.0 |
| 20260506050104 | 20 | 151 | 0.0 | 0.0 | 0.00 | 0.00 | 0.00 | 55 | 1009.6 |
| 20260506044548 | 20 | 220 | 0.0 | 0.0 | 0.00 | 0.00 | 0.00 | 54 | 1009.7 |
| 20260506043048 | 20 | 143 | 0.0 | 0.0 | 0.00 | 0.00 | 0.00 | 53 | 1009.6 |
| 20260506041544 | 20 | 191 | 0.0 | 0.0 | 0.00 | 0.00 | 0.00 | 52 | 1009.7 |
| 20260506040042 | 20 | 249 | 0.0 | 0.0 | 0.00 | 0.00 | 0.00 | 52 | 1009.5 |
| 20260506034542 | 20 | 172 | 0.0 | 0.0 | 0.00 | 0.00 | 0.00 | 52 | 1009.6 |
| 20260506033041 | 21 | 157 | 0.0 | 0.0 | 0.00 | 0.00 | 0.00 | 51 | 1009.6 |
| 20260506031541 | 21 | 165 | 0.0 | 0.0 | 0.00 | 0.00 | 0.00 | 50 | 1009.5 |
| 20260506030039 | 21 | 165 | 0.0 | 0.0 | 0.00 | 0.00 | 0.00 | 50 | 1009.5 |
| 20260506024548 | 21 | 217 | 0.0 | 0.0 | 0.00 | 0.00 | 0.00 | 49 | 1009.5 |
| 20260506023040 | 21 | 179 | 0.0 | 0.0 | 0.00 | 0.00 | 0.00 | 48 | 1009.6 |
| 20260506021538 | 22 | 184 | 0.0 | 0.0 | 0.00 | 0.00 | 0.00 | 47 | 1009.7 |
| 20260506020040 | 22 | 165 | 0.0 | 0.0 | 0.00 | 0.00 | 0.00 | 45 | 1009.7 |
| 20260506014537 | 22 | 223 | 0.0 | 0.0 | 0.00 | 0.00 | 0.00 | 44 | 1009.4 |
| 20260506013038 | 22 | 216 | 0.0 | 0.0 | 0.00 | 0.00 | 0.00 | 43 | 1009.3 |
| 20260506011600 | 22 | 176 | 0.0 | 0.0 | 0.00 | 0.00 | 0.00 | 43 | 1009.1 |
| 20260506010035 | 23 | 68 | 0.0 | 0.0 | 0.00 | 0.00 | 0.00 | 42 | 1009.0 |
| 20260506004545 | 23 | 198 | 0.0 | 0.0 | 0.00 | 0.00 | 0.00 | 41 | 1008.8 |
| 20260506003035 | 23 | 161 | 0.0 | 0.0 | 0.00 | 0.00 | 0.00 | 41 | 1008.7 |
| 20260506001536 | 23 | 264 | 0.0 | 0.0 | 0.00 | 0.00 | 0.00 | 41 | 1008.5 |
| 20260506000056 | 23 | 220 | 0.0 | 0.0 | 0.00 | 0.00 | 0.00 | 41 | 1008.4 |
| 20260505234542 | 24 | 196 | 0.0 | 0.0 | 0.00 | 0.00 | 0.00 | 40 | 1008.4 |
| 20260505233034 | 24 | 230 | 0.0 | 0.0 | 0.00 | 0.00 | 0.00 | 39 | 1008.1 |
| 20260505231533 | 25 | 221 | 0.0 | 0.0 | 0.00 | 0.00 | 0.00 | 38 | 1008.1 |
| 20260505230050 | 25 | 237 | 0.0 | 0.0 | 0.00 | 0.00 | 0.00 | 37 | 1008.0 |
| 20260505224538 | 25 | 174 | 0.0 | 0.0 | 0.00 | 0.00 | 0.00 | 38 | 1008.1 |
| 20260505223030 | 26 | 215 | 0.0 | 0.0 | 0.00 | 0.00 | 0.00 | 36 | 1008.0 |
| 20260505221530 | 26 | 222 | 0.0 | 0.0 | 0.00 | 0.00 | 0.00 | 34 | 1007.9 |
| 20260505220029 | 26 | 197 | 0.0 | 0.0 | 0.00 | 0.00 | 0.00 | 34 | 1007.8 |
| 20260505214530 | 26 | 262 | 0.0 | 0.0 | 0.00 | 0.00 | 0.00 | 33 | 1007.8 |
| 20260505213027 | 26 | 258 | 0.0 | 0.0 | 0.00 | 0.00 | 0.00 | 35 | 1007.9 |
| 20260505211530 | 27 | 240 | 0.0 | 0.0 | 0.00 | 0.00 | 0.00 | 32 | 1007.8 |
| 20260505210029 | 26 | 211 | 0.0 | 0.0 | 0.00 | 0.00 | 0.00 | 34 | 1007.8 |
| 20260505204532 | 27 | 107 | 0.0 | 0.0 | 0.00 | 0.00 | 0.00 | 35 | 1007.9 |
| 20260505203024 | 26 | 248 | 0.0 | 0.0 | 0.00 | 0.00 | 0.00 | 34 | 1007.7 |